SCP
0 0 0 0 0 0 0 0 0 0 0 0 0 0 0 0 0 0 0 0 0 0
0 0 0 0 0 0 0 0 0 0 0 0 0 0 0 0 0 0 0 0 0 0
-0 -0 -0 -0 -0 0 0 0 0 0 0 0 0 0 0 0 0 0 0 0 0 0
-0 -0 -0 -0 -0 -0 -0 0 0 0 0 0 0 0 0 0 0 0 0 0 0 0
-0 -0 -0 -0 -0 -0 -0 -0 0 0 0 0 0 0 0 0 0 0 0 0 0 0
0 0 0 0 0 0 0 0 0 0 0 0 0 0 0 0 0 0 0 0 0 0
0 0 0 0 0 0 0 0 0 0 0 0 0 0 0 0 0 0 0 0 0 0
-0 -0 0 0 0 0 0 0 0 0 0 0 0 0 0 0 0 0 0 0 0 0
0 0 0 0 0 0 0 0 0 0 0 0 0 0 0 0 0 0 0 0 0 0
0 0 0 0 0 0 0 0 0 0 0 0 0 0 0 0 0 0 0 0 0 0
0 0 0 0 0 0 0 0 0 0 0 0 0 0 0 0 0 0 0 0 0 0
0 0 0 0 0 0 0 0 0 0 0 0 0 0 0 0 0 -0 0 0 0 0
0 0 0 0 0 0 0 0 0 0 0 0 0 0 0 0 0 -0 -0 -0 -0 0
0 0 0 0 0 0 0 0 0 0 0 0 0 0 0 0 0 0 0 -0 -0 -0
Wind_Speed_500mb
33 35 37 40 42 44 46 47 48 45 42 44 51 56 52 57 64 69 81 91 95 99
41 38 38 36 37 40 45 48 49 49 50 49 48 50 57 62 66 68 72 82 92 97
52 48 44 44 46 47 45 47 50 54 55 53 52 52 52 58 66 72 76 79 86 93
56 60 62 64 62 60 59 57 57 56 57 59 60 57 59 59 62 67 73 77 82 89
67 68 72 74 74 74 73 69 66 64 62 61 61 61 62 64 62 66 69 71 77 85
78 79 79 82 84 84 84 86 84 79 74 71 66 64 62 64 66 66 68 69 72 79
79 82 88 88 88 89 88 90 93 93 93 88 81 74 68 65 67 66 67 68 69 71
75 80 92 90 92 95 99 99 99 102 103 103 100 93 84 78 73 72 73 70 68 68
84 91 98 104 106 107 111 113 114 114 113 115 113 110 104 91 86 82 80 80 78 72
90 93 91 91 94 99 99 100 105 117 124 128 124 121 113 105 91 86 85 85 83 82
88 93 97 97 100 105 110 113 107 97 104 114 130 124 106 75 71 85 91 89 88 87
97 102 105 108 114 116 116 123 131 129 116 94 114 118 105 82 78 88 108 107 97 93
102 105 108 103 96 93 91 98 100 109 107 112 113 103 80 80 87 95 97 107 107 102
102 100 93 91 86 86 86 87 89 94 95 97 98 105 99 91 90 98 97 102 100 93
Wind_Direction_500mb
3 355 347 342 339 337 333 326 320 318 314 303 289 281 273 272 271 267 265 265 265 264
357 351 346 339 333 327 324 320 319 316 310 306 302 295 280 272 269 271 267 264 263 262
352 348 341 337 334 331 324 318 313 310 310 310 305 300 293 281 273 269 267 266 265 263
344 341 339 335 333 329 327 323 318 314 308 306 306 307 301 295 288 277 272 267 264 265
335 332 330 328 328 325 321 319 317 314 310 308 305 303 302 301 297 292 283 273 268 266
326 325 323 321 319 318 317 314 313 312 309 305 303 300 297 298 298 294 291 286 278 273
316 316 316 315 312 311 310 308 307 306 305 303 301 297 295 293 292 292 292 290 285 282
306 304 302 305 306 306 305 304 303 302 301 300 298 295 292 289 288 288 289 289 289 286
300 302 305 305 306 304 302 299 298 295 293 293 292 293 292 288 285 283 283 285 288 289
306 305 302 298 297 296 296 296 293 292 293 291 288 288 290 290 289 282 278 278 281 286
308 304 302 298 293 289 287 285 283 285 285 284 285 286 286 284 282 282 278 275 276 278
311 308 307 304 302 298 293 287 283 280 279 283 280 279 277 282 285 286 283 281 276 276
315 313 312 310 309 308 305 301 298 290 284 280 277 275 280 280 283 285 285 286 283 277
317 316 316 315 312 311 309 307 304 301 300 294 286 284 281 278 277 277 281 281 280 278
Wind_Speed_850mb
33 35 37 40 42 44 46 47 48 45 42 44 51 56 52 57 64 69 81 91 95 99
41 38 38 36 37 40 45 48 49 49 50 49 48 50 57 62 66 68 72 82 92 97
52 48 44 44 46 47 45 47 50 54 55 53 52 52 52 58 66 72 76 79 86 93
56 60 62 64 62 60 59 57 57 56 57 59 60 57 59 59 62 67 73 77 82 89
67 68 72 74 74 74 73 69 66 64 62 61 61 61 62 64 62 66 69 71 77 85
78 79 79 82 84 84 84 86 84 79 74 71 66 64 62 64 66 66 68 69 72 79
79 82 88 88 88 89 88 90 93 93 93 88 81 74 68 65 67 66 67 68 69 71
75 80 92 90 92 95 99 99 99 102 103 103 100 93 84 78 73 72 73 70 68 68
84 91 98 104 106 107 111 113 114 114 113 115 113 110 104 91 86 82 80 80 78 72
90 93 91 91 94 99 99 100 105 117 124 128 124 121 113 105 91 86 85 85 83 82
88 93 97 97 100 105 110 113 107 97 104 114 130 124 106 75 71 85 91 89 88 87
97 102 105 108 114 116 116 123 131 129 116 94 114 118 105 82 78 88 108 107 97 93
102 105 108 103 96 93 91 98 100 109 107 112 113 103 80 80 87 95 97 107 107 102
102 100 93 91 86 86 86 87 89 94 95 97 98 105 99 91 90 98 97 102 100 93
Wind_Direction_850mb
3 355 347 342 339 337 333 326 320 318 314 303 289 281 273 272 271 267 265 265 265 264
357 351 346 339 333 327 324 320 319 316 310 306 302 295 280 272 269 271 267 264 263 262
352 348 341 337 334 331 324 318 313 310 310 310 305 300 293 281 273 269 267 266 265 263
344 341 339 335 333 329 327 323 318 314 308 306 306 307 301 295 288 277 272 267 264 265
335 332 330 328 328 325 321 319 317 314 310 308 305 303 302 301 297 292 283 273 268 266
326 325 323 321 319 318 317 314 313 312 309 305 303 300 297 298 298 294 291 286 278 273
316 316 316 315 312 311 310 308 307 306 305 303 301 297 295 293 292 292 292 290 285 282
306 304 302 305 306 306 305 304 303 302 301 300 298 295 292 289 288 288 289 289 289 286
300 302 305 305 306 304 302 299 298 295 293 293 292 293 292 288 285 283 283 285 288 289
306 305 302 298 297 296 296 296 293 292 293 291 288 288 290 290 289 282 278 278 281 286
308 304 302 298 293 289 287 285 283 285 285 284 285 286 286 284 282 282 278 275 276 278
311 308 307 304 302 298 293 287 283 280 279 283 280 279 277 282 285 286 283 281 276 276
315 313 312 310 309 308 305 301 298 290 284 280 277 275 280 280 283 285 285 286 283 277
317 316 316 315 312 311 309 307 304 301 300 294 286 284 281 278 277 277 281 281 280 278